Location: Daerah Kuala Lumpur
(3.1167°N, 101.6833°E)
Time: 07:38:58
(UTC+00:00)

CZ-4C R/B - Pass Details

Date: 20 November 2024
Orbit: 515 x 1473 km, 63.4° (Epoch: 09 December)

Event Time Altitude Azimuth Distance (km) Brightness Sun altitude
Rises 13:13:31 0° 305° (NW) 4,492 6.4 -32.6°
Reaches altitude 10° 13:17:27 10° 290° (WNW) 3,577 5.9 -33.5°
Maximum altitude 13:23:27 20° 248° (WSW) 2,906 5.6 -34.9°
Drops below altitude 10° 13:29:25 10° 206° (SSW) 3,530 5.9 -36.3°
Sets 13:33:20 0° 189° (S) 4,412 6.3 -37.2°
